EW4713 Weather Reports


Display with metric or nautical units.
time (UTC)temp
F
wind
direction
speed
MPH
gust
MPH
rain 1hr
in
rain 24hr
in
rain mn
in
humidity
%
barometer
mb
20260508061814 30 57 1.0 2.0 0.00 0.00 0.00 72 1008.3
20260508061314 30 75 1.0 2.0 0.00 0.00 0.00 71 1008.3
20260508060814 30 90 1.0 2.0 0.00 0.00 0.00 72 1008.2
20260508055805 29 26 0.0 2.0 0.00 0.00 0.00 72 1008.3
20260508055306 29 20 1.0 2.0 0.00 0.00 0.00 72 1008.1
20260508054804 29 66 1.0 2.0 0.00 0.00 0.00 73 1008.2
20260508054301 29 26 1.0 2.0 0.00 0.00 0.00 72 1008.5
20260508053801 29 66 0.0 2.0 0.00 0.00 0.00 75 1008.3
20260508053300 29 57 1.0 2.0 0.00 0.00 0.00 72 1008.8
20260508052802 29 36 2.0 2.0 0.00 0.00 0.00 73 1008.5
20260508052301 29 26 0.0 2.0 0.00 0.00 0.00 77 1008.5
20260508051301 29 18 1.0 2.0 0.00 0.00 0.00 72 1008.5
20260508050802 29 69 0.0 2.0 0.00 0.00 0.00 71 1009.1
20260508050300 30 80 2.0 2.0 0.00 0.00 0.00 69 1008.9
20260508045803 30 26 1.0 1.0 0.00 0.00 0.00 70 1008.6
20260508045301 29 23 0.0 0.0 0.00 0.00 0.00 71 1008.9
20260508044801 30 23 0.0 0.0 0.00 0.00 0.00 70 1009.1
20260508044300 30 23 0.0 0.0 0.00 0.00 0.00 69 1009.0
20260508042801 31 23 0.0 0.0 0.00 0.00 0.00 66 1008.9
20260508042306 31 23 0.0 0.0 0.00 0.00 0.00 65 1009.2
20260508041801 31 23 0.0 1.0 0.00 0.00 0.00 64 1009.3
20260508040801 32 60 0.0 1.0 0.00 0.00 0.00 68 1009.4
20260508040300 32 66 0.0 1.0 0.00 0.00 0.00 68 1009.2
20260508035805 31 66 0.0 0.0 0.00 0.00 0.00 68 1009.1
20260508035307 32 66 0.0 0.0 0.00 0.00 0.00 67 1009.2
20260508034803 32 66 0.0 0.0 0.00 0.00 0.00 67 1009.2
20260508034303 32 66 0.0 1.0 0.00 0.00 0.00 65 1009.4
20260508033803 33 66 0.0 1.0 0.00 0.00 0.00 63 1009.3
20260508033301 33 66 1.0 1.0 0.00 0.00 0.00 65 1009.3
20260508032803 34 23 0.0 1.0 0.00 0.00 0.00 64 1009.3
20260508031758 34 74 0.0 1.0 0.00 0.00 0.00 61 1009.4
20260508031259 35 90 0.0 1.0 0.00 0.00 0.00 61 1009.5
20260508030759 35 74 0.0 1.0 0.00 0.00 0.00 60 1009.3
20260508025756 35 74 0.0 1.0 0.00 0.00 0.00 60 1009.2
20260508024750 35 0 0.0 0.0 0.00 0.00 0.00 58 1009.2
20260508024250 36 0 0.0 0.0 0.00 0.00 0.00 58 1009.2
20260508023749 36 0 0.0 0.0 0.00 0.00 0.00 56 1009.3
20260508023249 37 0 0.0 0.0 0.00 0.00 0.00 55 1009.3
20260508022750 38 0 0.0 0.0 0.00 0.00 0.00 54 1009.3
20260508022239 39 0 0.0 1.0 0.00 0.00 0.00 53 1009.2
20260508021738 40 0 0.0 1.0 0.00 0.00 0.00 51 1009.5
20260508021238 40 354 0.0 1.0 0.00 0.00 0.00 51 1009.2
20260508020739 40 7 0.0 1.0 0.00 0.00 0.00 51 1009.2
20260508015737 41 165 0.0 0.0 0.00 0.00 0.00 49 1009.1
20260508015239 42 165 0.0 0.0 0.00 0.00 0.00 49 1008.8
20260508014738 42 165 0.0 0.0 0.00 0.00 0.00 47 1009.0
20260508014239 43 165 0.0 0.0 0.00 0.00 0.00 45 1008.9
20260508013737 44 165 0.0 0.0 0.00 0.00 0.00 44 1008.9
20260508012729 45 165 0.0 0.0 0.00 0.00 0.00 42 1008.8
20260508012229 45 165 0.0 0.0 0.00 0.00 0.00 41 1008.9
20260508011229 47 165 0.0 3.0 0.00 0.00 0.00 38 1008.8
20260508010729 48 151 0.0 3.0 0.00 0.00 0.00 39 1008.8
20260508010231 48 157 0.0 2.0 0.00 0.00 0.00 37 1008.8
20260508005730 49 106 0.0 2.0 0.00 0.00 0.00 37 1008.8
20260508004729 51 254 0.0 4.0 0.00 0.00 0.00 34 1008.6
20260508004230 52 180 0.0 4.0 0.00 0.00 0.00 33 1008.6
20260508003733 52 119 2.0 7.0 0.00 0.00 0.00 33 1008.5
20260508003228 51 180 1.0 7.0 0.00 0.00 0.00 34 1008.9
20260508002731 51 54 5.0 6.0 0.00 0.00 0.00 33 1008.6
20260508002229 51 132 2.0 6.0 0.00 0.00 0.00 32 1008.3
20260508001729 52 78 2.0 6.0 0.00 0.00 0.00 33 1008.5
20260508001230 53 123 1.0 6.0 0.00 0.00 0.00 32 1008.9
20260508000729 53 78 1.0 6.0 0.00 0.00 0.00 32 1008.6
20260507235229 53 186 1.0 6.0 0.00 0.00 0.00 33 1008.8
20260507234729 53 87 3.0 6.0 0.00 0.00 0.00 31 1008.6
20260507234229 54 172 3.0 8.0 0.00 0.00 0.00 32 1008.8
20260507233731 53 143 2.0 8.0 0.00 0.00 0.00 31 1008.6
20260507232229 55 171 3.0 10.0 0.00 0.00 0.00 29 1008.8
20260507231729 54 161 4.0 10.0 0.00 0.00 0.00 31 1008.8
20260507231231 55 5 0.0 7.0 0.00 0.00 0.00 32 1008.8
20260507230729 56 180 5.0 7.0 0.00 0.00 0.00 30 1008.6
20260507230229 55 113 3.0 13.0 0.00 0.00 0.00 31 1008.8
20260507225730 54 94 2.0 13.0 0.00 0.00 0.00 30 1008.9
20260507224731 55 90 1.0 10.0 0.00 0.00 0.00 30 1008.8
20260507223729 55 93 4.0 6.0 0.00 0.00 0.00 30 1008.9
20260507223231 54 111 3.0 6.0 0.00 0.00 0.00 31 1008.8
20260507222730 55 209 4.0 6.0 0.00 0.00 0.00 31 1009.1
20260507222232 53 90 0.0 6.0 0.00 0.00 0.00 34 1008.9
20260507221729 51 90 0.0 7.0 0.00 0.00 0.00 35 1009.1
20260507221229 52 143 2.0 7.0 0.00 0.00 0.00 35 1009.1
20260507220730 54 135 3.0 8.0 0.00 0.00 0.00 33 1008.9
20260507220229 53 306 1.0 8.0 0.00 0.00 0.00 34 1008.9
20260507215729 53 225 0.0 5.0 0.00 0.00 0.00 34 1008.8
20260507214229 54 283 2.0 6.0 0.00 0.00 0.00 33 1009.1
20260507213725 56 99 4.0 7.0 0.00 0.00 0.00 34 1009.1
20260507213227 55 206 5.0 8.0 0.00 0.00 0.00 34 1009.0
20260507212725 55 90 3.0 8.0 0.00 0.00 0.00 35 1009.2
20260507212225 54 236 2.0 5.0 0.00 0.00 0.00 35 1009.3
20260507211723 54 132 2.0 7.0 0.00 0.00 0.00 36 1009.1
20260507211224 52 206 2.0 7.0 0.00 0.00 0.00 37 1009.4
20260507210721 51 200 1.0 5.0 0.00 0.00 0.00 36 1009.4
20260507210209 54 164 5.0 7.0 0.00 0.00 0.00 35 1009.5
20260507205712 53 180 2.0 7.0 0.00 0.00 0.00 36 1009.3
20260507205206 53 141 4.0 7.0 0.00 0.00 0.00 37 1009.3
20260507204702 53 190 2.0 9.0 0.00 0.00 0.00 35 1009.4
20260507204203 53 95 2.0 9.0 0.00 0.00 0.00 37 1009.2
20260507203702 53 173 1.0 7.0 0.00 0.00 0.00 36 1009.4
20260507203205 51 147 3.0 7.0 0.00 0.00 0.00 39 1009.5
20260507202703 51 139 2.0 8.0 0.00 0.00 0.00 39 1009.5
20260507202202 51 165 2.0 8.0 0.00 0.00 0.00 37 1009.6
20260507201703 55 169 1.0 6.0 0.00 0.00 0.00 35 1009.7
20260507201204 53 152 4.0 7.0 0.00 0.00 0.00 37 1009.5
20260507200702 51 180 3.0 7.0 0.00 0.00 0.00 37 1009.8
20260507200204 54 341 2.0 11.0 0.00 0.00 0.00 37 1009.7
20260507195702 52 69 3.0 11.0 0.00 0.00 0.00 38 1009.5
20260507195203 55 109 1.0 8.0 0.00 0.00 0.00 39 1009.8
20260507194701 54 90 3.0 8.0 0.00 0.00 0.00 38 1009.8
20260507194201 52 110 3.0 10.0 0.00 0.00 0.00 39 1010.0
20260507193201 50 71 5.0 11.0 0.00 0.00 0.00 41 1009.9
20260507192701 49 203 1.0 9.0 0.00 0.00 0.00 40 1009.8
20260507192201 51 125 6.0 9.0 0.00 0.00 0.00 38 1009.6
20260507191701 51 117 2.0 9.0 0.00 0.00 0.00 38 1009.8
20260507191201 52 164 4.0 9.0 0.00 0.00 0.00 37 1009.8
20260507190702 53 194 2.0 9.0 0.00 0.00 0.00 36 1009.8
20260507190203 52 171 3.0 10.0 0.00 0.00 0.00 36 1009.8
20260507185701 53 101 2.0 10.0 0.00 0.00 0.00 38 1009.9
20260507185200 54 159 2.0 8.0 0.00 0.00 0.00 36 1010.0
20260507184702 52 67 4.0 16.0 0.00 0.00 0.00 37 1009.9
20260507184202 49 134 6.0 16.0 0.00 0.00 0.00 40 1010.2
20260507183702 51 148 3.0 10.0 0.00 0.00 0.00 39 1010.0
20260507183204 52 148 3.0 10.0 0.00 0.00 0.00 41 1010.0
20260507182702 51 154 4.0 10.0 0.00 0.00 0.00 41 1010.0
20260507182204 49 127 3.0 9.0 0.00 0.00 0.00 41 1010.0
20260507181703 50 154 2.0 9.0 0.00 0.00 0.00 42 1010.0
20260507180702 49 109 1.0 7.0 0.00 0.00 0.00 43 1010.5
20260507180204 49 196 4.0 7.0 0.00 0.00 0.00 42 1010.5
20260507175702 49 151 1.0 7.0 0.00 0.00 0.00 43 1010.3
20260507175202 48 104 7.0 12.0 0.00 0.00 0.00 42 1010.2
20260507174204 50 151 4.0 6.0 0.00 0.00 0.00 40 1010.5
20260507173705 49 201 2.0 8.0 0.00 0.00 0.00 41 1010.4
20260507173230 49 172 0.0 9.0 0.00 0.00 0.00 42 1010.7
20260507172702 50 134 3.0 9.0 0.00 0.00 0.00 40 1010.7
20260507172201 50 164 2.0 6.0 0.00 0.00 0.00 42 1010.6
20260507171203 48 144 2.0 6.0 0.00 0.00 0.00 44 1010.8
20260507170705 49 176 0.0 6.0 0.00 0.00 0.00 43 1010.8
20260507170217 49 203 0.0 6.0 0.00 0.00 0.00 44 1010.7
20260507165703 47 75 4.0 6.0 0.00 0.00 0.00 44 1010.6
20260507165203 49 236 2.0 5.0 0.00 0.00 0.00 44 1010.8
20260507164703 48 151 0.0 5.0 0.00 0.00 0.00 46 1010.9
20260507164202 48 168 2.0 7.0 0.00 0.00 0.00 46 1010.9
20260507163703 48 147 2.0 7.0 0.00 0.00 0.00 46 1010.9
20260507163204 47 161 2.0 5.0 0.00 0.00 0.00 48 1011.0
20260507162701 48 169 0.0 8.0 0.00 0.00 0.00 49 1010.8
20260507162202 46 84 3.0 8.0 0.00 0.00 0.00 49 1011.0
20260507161202 46 166 0.0 6.0 0.00 0.00 0.00 49 1010.9
20260507160701 46 168 2.0 8.0 0.00 0.00 0.00 47 1010.8
20260507160202 47 109 5.0 8.0 0.00 0.00 0.00 50 1010.8
20260507155701 46 184 2.0 6.0 0.00 0.00 0.00 49 1010.9
20260507154702 46 87 3.0 8.0 0.00 0.00 0.00 51 1011.2
20260507154201 46 154 3.0 5.0 0.00 0.00 0.00 49 1010.9
20260507153703 45 123 3.0 7.0 0.00 0.00 0.00 50 1010.9
20260507153202 45 178 3.0 7.0 0.00 0.00 0.00 51 1010.7
20260507152700 46 97 0.0 6.0 0.00 0.00 0.00 50 1010.9
20260507152202 46 109 2.0 6.0 0.00 0.00 0.00 50 1010.8
20260507151700 45 110 2.0 6.0 0.00 0.00 0.00 52 1010.8
20260507151203 44 165 2.0 5.0 0.00 0.00 0.00 54 1010.8
20260507150705 44 132 2.0 7.0 0.00 0.00 0.00 53 1011.0
20260507145703 44 202 3.0 7.0 0.00 0.00 0.00 53 1010.8
20260507145202 44 114 0.0 7.0 0.00 0.00 0.00 56 1010.8
20260507144703 43 108 3.0 5.0 0.00 0.00 0.00 56 1010.7
20260507144202 42 124 4.0 8.0 0.00 0.00 0.00 57 1010.8
20260507143702 42 149 2.0 8.0 0.00 0.00 0.00 57 1010.9
20260507143202 42 36 0.0 7.0 0.00 0.00 0.00 60 1010.9
20260507142704 42 96 0.0 7.0 0.00 0.00 0.00 60 1010.7
20260507141202 41 98 1.0 5.0 0.00 0.00 0.00 61 1011.0
20260507140703 41 129 2.0 7.0 0.00 0.00 0.00 64 1011.3
20260507140204 39 161 4.0 7.0 0.00 0.00 0.00 64 1011.2
20260507135202 38 45 0.0 4.0 0.00 0.00 0.00 69 1011.2
20260507134702 37 105 0.0 4.0 0.00 0.00 0.00 69 1011.3
20260507134201 36 141 2.0 3.0 0.00 0.00 0.00 72 1011.3
20260507133702 35 68 2.0 4.0 0.00 0.00 0.00 72 1011.0
20260507133204 35 56 2.0 4.0 0.00 0.00 0.00 72 1011.3
20260507132702 35 111 0.0 3.0 0.00 0.00 0.00 70 1011.3
20260507131703 34 82 2.0 3.0 0.00 0.00 0.00 73 1011.4
20260507131204 34 70 2.0 2.0 0.00 0.00 0.00 73 1011.6
20260507130703 33 112 2.0 2.0 0.00 0.00 0.00 76 1011.5
20260507130204 33 48 2.0 2.0 0.00 0.00 0.00 76 1011.5
20260507125701 33 90 1.0 2.0 0.00 0.00 0.00 77 1011.4
20260507125202 32 82 0.0 1.0 0.00 0.00 0.00 82 1011.5
20260507124702 31 90 0.0 1.0 0.00 0.00 0.00 84 1011.8
20260507124200 31 57 0.0 1.0 0.00 0.00 0.00 87 1011.6
20260507123701 30 60 0.0 1.0 0.00 0.00 0.00 89 1011.5
20260507123201 29 60 0.0 1.0 0.00 0.00 0.00 89 1011.8
20260507122202 28 53 0.0 2.0 0.00 0.00 0.00 91 1011.6
20260507121701 27 53 0.0 2.0 0.00 0.00 0.00 92 1011.5
20260507121200 27 23 0.0 1.0 0.00 0.00 0.00 93 1011.5
20260507120701 26 23 0.0 0.0 0.00 0.00 0.00 93 1011.3
20260507120203 25 23 0.0 1.0 0.00 0.00 0.00 93 1011.3
20260507115701 24 23 0.0 2.0 0.00 0.00 0.00 93 1011.4
20260507115201 24 33 0.0 2.0 0.00 0.00 0.00 94 1011.5
20260507114702 24 23 0.0 1.0 0.00 0.00 0.00 96 1011.4
20260507114200 22 23 0.0 0.0 0.00 0.00 0.00 96 1011.4
20260507113702 22 23 0.0 1.0 0.00 0.00 0.00 96 1011.3
20260507112701 21 23 0.0 0.0 0.00 0.00 0.00 96 1011.4
20260507112202 21 23 0.0 2.0 0.00 0.00 0.00 95 1011.2
20260507111201 21 20 0.0 2.0 0.00 0.00 0.00 96 1011.4
20260507110700 21 60 1.0 1.0 0.00 0.00 0.00 95 1011.3
20260507105700 21 180 0.0 1.0 0.00 0.00 0.00 96 1011.2
20260507105201 21 23 0.0 1.0 0.00 0.00 0.00 95 1011.3
20260507104701 21 29 0.0 0.0 0.00 0.00 0.00 95 1011.4
20260507104149 21 29 0.0 1.0 0.00 0.00 0.00 95 1011.4
20260507103650 21 29 0.0 1.0 0.00 0.00 0.00 95 1011.6
20260507103149 20 20 0.0 1.0 0.00 0.00 0.00 94 1011.6
20260507102649 21 32 0.0 2.0 0.00 0.00 0.00 94 1011.4
20260507102149 21 32 0.0 2.0 0.00 0.00 0.00 94 1011.4
20260507101649 21 20 0.0 2.0 0.00 0.00 0.00 94 1011.5
20260507100647 21 23 0.0 1.0 0.00 0.00 0.00 94 1011.6
20260507095634 21 54 0.0 1.0 0.00 0.00 0.00 94 1011.6
20260507095135 22 54 0.0 1.0 0.00 0.00 0.00 94 1011.6
20260507094136 22 41 0.0 2.0 0.00 0.00 0.00 94 1011.7
20260507093629 22 18 1.0 1.0 0.00 0.00 0.00 94 1011.7
20260507093131 22 60 0.0 1.0 0.00 0.00 0.00 93 1011.6
20260507092629 22 66 0.0 1.0 0.00 0.00 0.00 93 1011.7
20260507092130 22 66 0.0 1.0 0.00 0.00 0.00 92 1011.8
20260507091629 22 66 0.0 1.0 0.00 0.00 0.00 92 1011.8
20260507091129 23 66 0.0 1.0 0.00 0.00 0.00 92 1011.7
20260507090131 23 32 0.0 2.0 0.00 0.00 0.00 92 1011.7
20260507085629 24 23 0.0 2.0 0.00 0.00 0.00 92 1011.7
20260507085129 24 0 0.0 2.0 0.00 0.00 0.00 92 1011.7
20260507084630 24 0 0.0 2.0 0.00 0.00 0.00 91 1011.7
20260507083629 24 35 0.0 2.0 0.00 0.00 0.00 91 1011.7
20260507083130 24 36 0.0 2.0 0.00 0.00 0.00 91 1011.7
20260507082629 24 45 0.0 2.0 0.00 0.00 0.00 91 1011.7
20260507082129 24 45 0.0 2.0 0.00 0.00 0.00 90 1011.7
20260507081629 24 23 0.0 2.0 0.00 0.00 0.00 90 1011.8
20260507080629 24 26 0.0 1.0 0.00 0.00 0.00 90 1011.6
20260507075629 25 66 0.0 1.0 0.00 0.00 0.00 91 1011.7
20260507075130 24 63 0.0 1.0 0.00 0.00 0.00 91 1011.6
20260507074629 24 63 0.0 1.0 0.00 0.00 0.00 91 1011.7
20260507074130 24 35 0.0 1.0 0.00 0.00 0.00 90 1011.7
20260507073628 24 35 0.0 1.0 0.00 0.00 0.00 90 1011.6
20260507073133 24 20 0.0 2.0 0.00 0.00 0.00 90 1011.8
20260507072632 24 63 0.0 2.0 0.00 0.00 0.00 90 1011.9
20260507072132 24 12 0.0 1.0 0.00 0.00 0.00 89 1011.9
20260507071633 24 75 0.0 1.0 0.00 0.00 0.00 90 1011.9
20260507071131 24 66 0.0 2.0 0.00 0.00 0.00 89 1011.9
20260507070129 24 35 0.0 1.0 0.00 0.00 0.00 89 1012.0
20260507065124 25 40 0.0 2.0 0.00 0.00 0.00 89 1012.0
20260507064623 24 66 1.0 2.0 0.00 0.00 0.00 88 1012.1
20260507064122 25 66 0.0 2.0 0.00 0.00 0.00 88 1012.0
20260507063612 25 63 0.0 2.0 0.00 0.00 0.00 88 1012.3